Weather in Pyrgos

Greece     37°40′19″N   21°26′21″E
temp.,
°C
wind,
m/s
gust,
m/s
humid.,
%
clouds,
%
prec.,
mm/h
press.,
hPa
HPBL,
m
27 october, wed
wed2700:00+13ene237482 0.0 101954
03:00+12ene227543 0.0 101837
06:00+12ene22768 0.0 101832
09:00+13ene2272100 0.0 101963
12:00+18se1250100 0.0 1019582
15:00+20wsw2246100 0.0 10181072
18:00+18wnw2364100 0.0 101872
21:00+15e2270100 0.0 101927
28 october, thu
thu2800:00+13e22685 0.0 102036
03:00+12ene22684 0.0 102031
06:00+11e22650 0.0 101933
09:00+12ene23623 0.0 102060
12:00+19e13395 0.0 1019627
15:00+22sse14315 0.0 10181273
18:00+18sw11545 0.0 101728
21:00+15e2258100 0.0 101827
29 october, fri
fri2900:00+13ene236031 0.0 101940
03:00+12e225934 0.0 101930
06:00+12ne225641 0.0 101832
09:00+14e225452 0.0 101840
12:00+20se123537 0.0 1018560
15:00+22wsw223497 0.0 10171075
18:00+18wsw2255100 0.0 101735
21:00+17sse1157100 0.0 101743
30 october, sat
sat3000:00+15ese1163100 0.0 101844
03:00+15ene2259100 0.0 101828
06:00+13e2259100 0.0 101832
09:00+13e225580 0.0 101955
12:00+19ese01385 0.0 1019634
15:00+20w32370 0.0 10171306
18:00+17w34590 0.0 1018156
21:00+15se12690 0.0 102046
31 october, sun
sun3100:00+13e22690 0.0 102038
03:00+12ene22640 0.0 102032
05:00+11ene22640 0.0 102025
08:00+12e22610 0.0 102151
11:00+18s11420 0.0 1021654
14:00+19wsw32440 0.0 10201193
17:00+16wsw22580 0.0 102042
20:00+13e11670 0.0 102135